Date String (YYYY-MM-DD hh:mm:ss) UTC,Instrument flags,Ambient pressure (hPa),Sample flow (lpm),Bypass flow (lpm),Sample temperature (°C),Ambient temperature (°C),ASC tube jacket temperature (°C),LED temperature (°C),Box temperature (°C),Sample RH (%),Span deviation,Mass concentration (μg/m³),Mass concentration (μg/m³),Mass concentration (μg/m³)
DateTimeUTC,F1_M11,P_M11,Q1_M11,Q2_M11,T1_M11,T2_M11,T3_M11,T4_M11,T5_M11,U1_M11,ZSPAN_M11,X2_M11,X0_M11,X1_M11
2022-01-09 21:00:00,,0835.3,4.99,0.00,24.4,23.7,00.0,33.5,26.2,11.5,0000.0,0005.32,0008.84,0005.09
2022-01-09 21:01:00,,0835.2,5.00,0.00,24.4,23.7,00.0,33.4,26.2,11.4,0000.0,0005.31,0008.99,0005.07
2022-01-09 21:02:00,,0835.2,5.00,0.00,24.4,23.7,00.0,33.4,26.2,11.3,0000.0,0005.30,0009.01,0005.05
2022-01-09 21:03:00,,0835.2,5.01,0.00,24.4,23.7,00.0,33.4,26.2,11.2,0000.0,0005.28,0008.99,0005.04
2022-01-09 21:04:00,,0835.2,4.99,0.00,24.4,23.7,00.0,33.4,26.2,11.3,0000.0,0005.27,0008.40,0005.01
2022-01-09 21:05:00,,0835.2,5.01,0.00,24.4,23.7,00.0,33.4,26.2,11.2,0000.0,0005.28,0008.35,0005.00
2022-01-09 21:06:00,,0835.2,5.00,0.00,24.4,23.7,00.0,33.4,26.2,11.2,0000.0,0005.25,0008.48,0004.99
2022-01-09 21:07:00,,0835.2,4.99,0.00,24.4,23.6,00.0,33.4,26.2,11.4,0000.0,0005.26,0008.67,0004.99
2022-01-09 21:08:00,,0835.2,5.01,0.00,24.4,23.6,00.0,33.4,26.2,11.4,0000.0,0005.25,0008.66,0004.98
2022-01-09 21:09:00,,0835.2,4.99,0.00,24.4,23.6,00.0,33.4,26.1,11.4,0000.0,0005.24,0008.68,0004.98
2022-01-09 21:10:00,,0835.3,5.00,0.00,24.3,23.6,00.0,33.4,26.1,11.4,0000.0,0005.23,0008.63,0004.99
2022-01-09 21:11:00,,0835.3,4.99,0.00,24.3,23.6,00.0,33.4,26.1,11.4,0000.0,0005.21,0008.58,0004.97
2022-01-09 21:12:00,,0835.4,5.00,0.00,24.3,23.6,00.0,33.4,26.1,11.5,0000.0,0005.20,0008.44,0004.97
2022-01-09 21:13:00,,0835.4,4.99,0.00,24.3,23.6,00.0,33.4,26.1,11.5,0000.0,0005.19,0008.39,0004.97
2022-01-09 21:14:00,,0835.4,5.00,0.00,24.3,23.6,00.0,33.4,26.1,11.6,0000.0,0005.20,0008.40,0004.99
2022-01-09 21:15:00,,0835.4,5.00,0.00,24.3,23.6,00.0,33.3,26.1,11.6,0000.0,0005.20,0008.37,0005.01
2022-01-09 21:16:00,,0835.4,5.01,0.00,24.3,23.6,00.0,33.3,26.1,11.5,0000.0,0005.19,0008.40,0005.01
2022-01-09 21:17:00,,0835.4,4.99,0.00,24.3,23.6,00.0,33.3,26.1,11.3,0000.0,0005.20,0008.04,0005.01
2022-01-09 21:18:00,,0835.4,5.01,0.00,24.3,23.6,00.0,33.3,26.0,11.3,0000.0,0005.21,0007.71,0005.03
2022-01-09 21:19:00,,0835.4,5.00,0.00,24.3,23.6,00.0,33.3,26.1,11.4,0000.0,0005.25,0007.76,0005.05
2022-01-09 21:20:00,,0835.4,5.00,0.00,24.3,23.6,00.0,33.3,26.1,11.4,0000.0,0005.28,0007.77,0005.08
2022-01-09 21:21:00,,0835.4,5.01,0.00,24.3,23.7,00.0,33.3,26.1,11.4,0000.0,0005.30,0007.80,0005.10
2022-01-09 21:22:00,,0835.4,5.00,0.00,24.3,23.7,00.0,33.3,26.1,11.4,0000.0,0005.35,0007.88,0005.12
2022-01-09 21:23:00,,0835.3,5.00,0.00,24.3,23.7,00.0,33.3,26.1,11.3,0000.0,0005.37,0007.91,0005.14
2022-01-09 21:24:00,,0835.4,5.00,0.00,24.3,23.7,00.0,33.3,26.1,11.4,0000.0,0005.40,0007.95,0005.17
2022-01-09 21:25:00,,0835.4,4.99,0.00,24.3,23.7,00.0,33.3,26.1,11.4,0000.0,0005.44,0008.01,0005.19
2022-01-09 21:26:00,,0835.4,5.00,0.00,24.3,23.7,00.0,33.3,26.1,11.4,0000.0,0005.44,0008.08,0005.21
2022-01-09 21:27:00,,0835.4,5.00,0.00,24.3,23.7,00.0,33.3,26.1,11.3,0000.0,0005.46,0008.37,0005.23
2022-01-09 21:28:00,,0835.4,5.00,0.00,24.3,23.6,00.0,33.3,26.1,11.4,0000.0,0005.47,0008.40,0005.25
2022-01-09 21:29:00,,0835.3,5.01,0.00,24.3,23.6,00.0,33.3,26.1,11.4,0000.0,0005.48,0008.44,0005.26
2022-01-09 21:30:00,,0835.4,4.99,0.00,24.3,23.6,00.0,33.3,26.1,11.5,0000.0,0005.48,0008.49,0005.27
2022-01-09 21:31:00,,0835.4,5.00,0.00,24.3,23.6,00.0,33.3,26.1,11.3,0000.0,0005.48,0008.49,0005.26
2022-01-09 21:32:00,,0835.4,5.00,0.00,24.3,23.6,00.0,33.3,26.0,11.4,0000.0,0005.47,0008.46,0005.27
2022-01-09 21:33:00,,0835.4,5.00,0.00,24.3,23.6,00.0,33.3,26.0,11.4,0000.0,0005.46,0008.38,0005.28
2022-01-09 21:34:00,,0835.4,4.99,0.00,24.3,23.6,00.0,33.3,26.0,11.4,0000.0,0005.48,0008.45,0005.30
2022-01-09 21:35:00,,0835.5,5.00,0.00,24.3,23.6,00.0,33.3,26.1,11.3,0000.0,0005.50,0008.64,0005.31
2022-01-09 21:36:00,,0835.5,5.01,0.00,24.3,23.6,00.0,33.3,26.1,11.3,0000.0,0005.50,0008.62,0005.31
2022-01-09 21:37:00,,0835.6,5.00,0.00,24.3,23.6,00.0,33.3,26.0,11.3,0000.0,0005.52,0008.59,0005.32
2022-01-09 21:38:00,,0835.6,5.00,0.00,24.3,23.6,00.0,33.3,26.0,11.4,0000.0,0005.54,0008.66,0005.33
2022-01-09 21:39:00,,0835.6,4.99,0.00,24.3,23.6,00.0,33.3,26.0,11.4,0000.0,0005.57,0009.03,0005.34
2022-01-09 21:40:00,,0835.6,5.00,0.00,24.3,23.6,00.0,33.3,26.0,11.3,0000.0,0005.60,0009.11,0005.34
2022-01-09 21:41:00,,0835.6,5.00,0.00,24.3,23.6,00.0,33.3,26.0,11.3,0000.0,0005.60,0009.10,0005.35
2022-01-09 21:42:00,,0835.6,5.01,0.00,24.3,23.6,00.0,33.3,26.1,11.4,0000.0,0005.62,0009.12,0005.36
2022-01-09 21:43:00,,0835.6,5.00,0.00,24.3,23.6,00.0,33.3,26.1,11.4,0000.0,0005.63,0009.12,0005.37
2022-01-09 21:44:00,,0835.6,4.98,0.00,24.3,23.6,00.0,33.3,26.1,11.4,0000.0,0005.65,0009.16,0005.37
2022-01-09 21:45:00,,0835.6,5.01,0.00,24.3,23.6,00.0,33.3,26.1,11.3,0000.0,0005.67,0009.18,0005.38
2022-01-09 21:46:00,,0835.6,4.99,0.00,24.3,23.5,00.0,33.3,26.0,11.3,0000.0,0005.69,0009.01,0005.39
2022-01-09 21:47:00,,0835.6,5.01,0.00,24.2,23.5,00.0,33.2,26.0,11.5,0000.0,0005.68,0009.01,0005.39
2022-01-09 21:48:00,,0835.6,4.99,0.00,24.2,23.5,00.0,33.2,26.0,11.4,0000.0,0005.70,0009.14,0005.40
2022-01-09 21:49:00,,0835.6,5.00,0.00,24.2,23.5,00.0,33.2,26.0,11.3,0000.0,0005.71,0009.39,0005.42
2022-01-09 21:50:00,,0835.7,5.00,0.00,24.2,23.5,00.0,33.2,25.9,11.3,0000.0,0005.72,0009.17,0005.44
2022-01-09 21:51:00,,0835.7,5.00,0.00,24.2,23.5,00.0,33.2,25.9,11.2,0000.0,0005.75,0009.28,0005.46
2022-01-09 21:52:00,,0835.7,5.00,0.00,24.2,23.5,00.0,33.2,25.9,11.4,0000.0,0005.79,0009.47,0005.47
2022-01-09 21:53:00,,0835.7,5.01,0.00,24.2,23.5,00.0,33.2,25.9,11.4,0000.0,0005.82,0009.51,0005.49
2022-01-09 21:54:00,,0835.7,5.00,0.00,24.2,23.5,00.0,33.2,25.9,11.3,0000.0,0005.85,0009.58,0005.51
2022-01-09 21:55:00,,0835.8,4.99,0.00,24.1,23.5,00.0,33.2,25.9,11.2,0000.0,0005.85,0009.58,0005.53
2022-01-09 21:56:00,,0835.8,5.01,0.00,24.1,23.5,00.0,33.2,25.9,11.2,0000.0,0005.85,0009.73,0005.53
2022-01-09 21:57:00,,0835.8,5.01,0.00,24.1,23.5,00.0,33.2,25.9,11.3,0000.0,0005.84,0009.88,0005.52
2022-01-09 21:58:00,,0835.8,4.99,0.00,24.1,23.5,00.0,33.2,25.9,11.5,0000.0,0005.87,0009.97,0005.53
2022-01-09 21:59:00,,0835.8,5.01,0.00,24.1,23.4,00.0,33.2,25.9,11.4,0000.0,0005.88,0009.94,0005.54
